DW6614 Weather Reports


time (UTC)temp
C
wind
direction
speed
KPH
gust
KPH
rain 1hr
cm
rain 24hr
cm
rain mn
cm
humidity
%
barometer
mb
20260507040032 -17 183 1.6 0.0 0.00 0.00 0.00 1008.0
20260507034527 -17 182 1.6 0.0 0.00 0.00 0.00 1007.9
20260507033024 -17 254 0.0 0.0 0.00 0.00 0.00 1007.7
20260507031518 -17 254 0.0 0.0 0.00 0.00 0.00 1007.5
20260507030014 -17 255 0.0 0.0 0.00 0.00 0.00 1007.4
20260507024512 -17 255 0.0 0.0 0.00 0.00 0.00 1007.3
20260507023005 -17 255 0.0 0.0 0.00 0.00 0.00 1007.2
20260507021502 -17 254 0.0 0.0 0.00 0.00 0.00 1007.2
20260507020112 -17 251 1.6 0.0 0.00 0.00 0.00 1007.2
20260507014555 -17 322 3.2 0.0 0.00 0.00 0.00 1007.2
20260507013050 -17 299 3.2 0.0 0.00 0.00 0.00 1007.2
20260507011532 -17 304 3.2 0.0 0.00 0.00 0.00 1007.2
20260507010032 -17 340 3.2 0.0 0.00 0.00 0.00 1007.3
20260507004521 -17 296 1.6 0.0 0.00 0.00 0.00 1007.3
20260507003016 -17 309 4.8 0.0 0.00 0.00 0.00 1007.3
20260507001512 -17 300 3.2 0.0 0.00 0.00 0.00 1007.3
20260507000008 -17 315 1.6 0.0 0.00 0.00 0.00 1007.4
20260506234504 -17 92 1.6 0.0 0.00 0.00 0.00 1007.4
20260506233112 -17 299 1.6 0.0 0.00 0.00 0.00 1007.6
20260506231601 -17 38 4.8 0.0 0.00 0.00 0.00 1007.9
20260506230053 -17 76 3.2 0.0 0.00 0.00 0.00 1008.1
20260506224546 -17 64 3.2 0.0 0.00 0.00 0.00 1008.3
20260506223046 -17 194 0.0 0.0 0.00 0.00 0.00 1008.6
20260506221539 -17 27 1.6 0.0 0.00 0.00 0.00 1008.8
20260506220034 -17 296 1.6 0.0 0.00 0.00 0.00 1009.1
20260506214538 -17 279 3.2 0.0 0.00 0.00 0.00 1009.4
20260506213025 -17 38 3.2 0.0 0.00 0.00 0.00 1009.8
20260506211520 -17 40 1.6 0.0 0.00 0.00 0.00 1010.1
20260506210020 -17 25 3.2 0.0 0.00 0.00 0.00 1010.3
20260506204512 -17 22 4.8 0.0 0.00 0.00 0.00 1010.5
20260506203007 -17 10 1.6 0.0 0.00 0.00 0.00 1010.6
20260506201503 -17 298 1.6 0.0 0.00 0.00 0.00 1010.7
20260506200058 -17 218 3.2 0.0 0.00 0.00 0.00 1010.9
20260506194554 -17 221 4.8 0.0 0.00 0.00 0.00 1011.2
20260506193049 -17 256 4.8 0.0 0.00 0.00 0.00 1011.3
20260506191545 -17 219 4.8 0.0 0.00 0.00 0.00 1011.5
20260506190040 -17 203 1.6 0.0 0.00 0.00 0.00 1011.8
20260506184547 -17 237 1.6 0.0 0.00 0.00 0.00 1012.0
20260506183041 -17 250 3.2 0.0 0.00 0.00 0.00 1012.2
20260506181537 -17 231 1.6 0.0 0.00 0.00 0.00 1012.3
20260506180027 -17 189 1.6 0.0 0.00 0.00 0.00 1012.4
20260506174523 -17 250 1.6 0.0 0.00 0.00 0.00 1012.5
20260506173014 -17 300 1.6 0.0 0.00 0.00 0.00 1012.5
20260506171508 -17 233 1.6 0.0 0.00 0.00 0.00 1012.5
20260506170004 -17 222 3.2 0.0 0.00 0.00 0.00 1012.5
20260506164613 -17 221 1.6 0.0 0.00 0.00 0.00 1012.6
20260506163053 -17 240 3.2 0.0 0.00 0.00 0.00 1012.7
20260506161549 -17 224 4.8 0.0 0.00 0.00 0.00 1012.6
20260506160052 -17 227 1.6 0.0 0.00 0.00 0.00 1012.6
20260506154540 -17 267 0.0 0.0 0.00 0.00 0.00 1012.6
20260506153054 -17 250 0.0 0.0 0.00 0.00 0.00 1012.6
20260506151532 -17 252 0.0 0.0 0.00 0.00 0.00 1012.6
20260506150031 -17 252 0.0 0.0 0.00 0.00 0.00 1012.4
20260506144523 -17 245 0.0 0.0 0.00 0.00 0.00 1012.3
20260506143019 -17 221 0.0 0.0 0.00 0.00 0.00 1012.1
20260506141514 -17 206 0.0 0.0 0.00 0.00 0.00 1012.1
20260506140014 -17 206 0.0 0.0 0.00 0.00 0.00 1012.1
20260506134505 -17 198 0.0 0.0 0.00 0.00 0.00 1011.9
20260506133000 -17 198 0.0 0.0 0.00 0.00 0.00 1011.6
20260506131557 -17 198 0.0 0.0 0.00 0.00 0.00 1011.3
20260506130056 -17 198 0.0 0.0 0.00 0.00 0.00 1011.2
20260506124550 -17 198 0.0 0.0 0.00 0.00 0.00 1010.9
20260506123044 -17 198 0.0 0.0 0.00 0.00 0.00 1010.8
20260506121539 -17 198 0.0 0.0 0.00 0.00 0.00 1010.7
20260506120039 -17 198 0.0 0.0 0.00 0.00 0.00 1010.7
20260506114531 -17 198 0.0 0.0 0.00 0.00 0.00 1010.5
20260506113036 -17 198 0.0 0.0 0.00 0.00 0.00 1010.3
20260506111522 -17 198 0.0 0.0 0.00 0.00 0.00 1010.3
20260506110018 -17 198 0.0 0.0 0.00 0.00 0.00 1010.1
20260506104513 -17 198 0.0 0.0 0.00 0.00 0.00 1010.0
20260506103012 -17 198 0.0 0.0 0.00 0.00 0.00 1010.0
20260506101508 -17 198 0.0 0.0 0.00 0.00 0.00 1009.8
20260506100100 -17 198 0.0 0.0 0.00 0.00 0.00 1009.7
20260506094556 -17 198 3.2 0.0 0.00 0.00 0.00 1009.6
20260506093051 -17 206 6.4 0.0 0.00 0.00 0.00 1009.5
20260506091553 -17 196 8.0 0.0 0.00 0.00 0.00 1009.4
20260506090045 -17 197 4.8 0.0 0.00 0.00 0.00 1009.4
20260506084545 -17 206 8.0 0.0 0.00 0.00 0.00 1009.4
20260506083034 -17 204 4.8 0.0 0.00 0.00 0.00 1009.4
20260506081530 -17 197 1.6 0.0 0.00 0.00 0.00 1009.5
20260506073018 -17 223 1.6 0.0 0.00 0.00 0.00 1009.2
20260506071512 -17 269 1.6 0.0 0.00 0.00 0.00 1009.3
20260506061555 -17 225 4.8 0.0 0.00 0.00 0.00 1008.5
20260506044529 -17 220 4.8 0.0 0.00 0.00 0.00 1007.4
20260506043024 -17 216 4.8 0.0 0.00 0.00 0.00 1007.2
20260506041520 -17 222 6.4 0.0 0.00 0.00 0.00 1007.0